| time (UTC) | temp F | wind direction | speed knots | gust knots | rain 1hr in | rain 24hr in | rain mn in | humidity % | barometer mb |
| 20260505033025 | 61 | 0.0 | 0.0 | 0.00 | 0.00 | 0.00 | 65 | 1009.8 | |
| 20260505032025 | 61 | 0.0 | 0.0 | 0.00 | 0.00 | 0.00 | 64 | 1009.9 | |
| 20260505031025 | 62 | 0.0 | 0.0 | 0.00 | 0.00 | 0.00 | 63 | 1009.8 | |
| 20260505030025 | 62 | 0.0 | 0.0 | 0.00 | 0.00 | 0.00 | 62 | 1010.0 | |
| 20260505025025 | 62 | 0.0 | 0.0 | 0.00 | 0.00 | 0.00 | 61 | 1010.0 | |
| 20260505024025 | 63 | 0.0 | 0.0 | 0.00 | 0.00 | 0.00 | 60 | 1009.9 | |
| 20260505023045 | 63 | 0.0 | 0.0 | 0.00 | 0.00 | 0.00 | 58 | 1009.8 | |
| 20260505022025 | 64 | 0.0 | 0.0 | 0.00 | 0.00 | 0.00 | 57 | 1009.9 | |
| 20260505021026 | 65 | 0.0 | 0.0 | 0.00 | 0.00 | 0.00 | 55 | 1009.8 | |
| 20260505020025 | 65 | 0.0 | 0.0 | 0.00 | 0.00 | 0.00 | 54 | 1009.8 | |
| 20260505015025 | 66 | 0.0 | 0.0 | 0.00 | 0.00 | 0.00 | 52 | 1009.8 | |
| 20260505014025 | 67 | 0.0 | 0.0 | 0.00 | 0.00 | 0.00 | 52 | 1009.7 | |
| 20260505013026 | 68 | 0.0 | 0.0 | 0.00 | 0.00 | 0.00 | 48 | 1009.7 | |
| 20260505012025 | 68 | 0.0 | 0.9 | 0.00 | 0.00 | 0.00 | 47 | 1009.5 | |
| 20260505011025 | 69 | 0.0 | 0.9 | 0.00 | 0.00 | 0.00 | 46 | 1009.5 | |
| 20260505010025 | 70 | 0.0 | 0.0 | 0.00 | 0.00 | 0.00 | 46 | 1009.4 | |
| 20260505005025 | 70 | 0.0 | 0.9 | 0.00 | 0.00 | 0.00 | 45 | 1009.3 | |
| 20260505004024 | 71 | 0.0 | 0.9 | 0.00 | 0.00 | 0.00 | 43 | 1009.0 | |
| 20260505003025 | 71 | 0.0 | 1.7 | 0.00 | 0.00 | 0.00 | 42 | 1009.0 | |
| 20260505002025 | 72 | 0.0 | 3.5 | 0.00 | 0.00 | 0.00 | 41 | 1009.1 | |
| 20260505001045 | 72 | 0.0 | 1.7 | 0.00 | 0.00 | 0.00 | 41 | 1009.0 | |
| 20260505000026 | 72 | 0.0 | 1.7 | 0.00 | 0.00 | 0.00 | 41 | 1009.1 | |
| 20260504235025 | 72 | 0.0 | 0.9 | 0.00 | 0.00 | 0.00 | 41 | 1009.0 | |
| 20260504234025 | 73 | 0.0 | 0.9 | 0.00 | 0.00 | 0.00 | 41 | 1008.9 | |
| 20260504233026 | 73 | 0.0 | 0.9 | 0.00 | 0.00 | 0.00 | 40 | 1008.8 | |
| 20260504232024 | 74 | 0.0 | 1.7 | 0.00 | 0.00 | 0.00 | 39 | 1008.8 | |
| 20260504231024 | 74 | 0.0 | 2.6 | 0.00 | 0.00 | 0.00 | 39 | 1008.7 | |
| 20260504230025 | 74 | 0.0 | 2.6 | 0.00 | 0.00 | 0.00 | 39 | 1008.7 | |
| 20260504225025 | 75 | 0.0 | 2.6 | 0.00 | 0.00 | 0.00 | 39 | 1008.7 | |
| 20260504224024 | 75 | 0.0 | 3.5 | 0.00 | 0.00 | 0.00 | 38 | 1008.8 | |
| 20260504223105 | 75 | 0.0 | 3.5 | 0.00 | 0.00 | 0.00 | 39 | 1008.7 | |
| 20260504222046 | 75 | 0.0 | 1.7 | 0.00 | 0.00 | 0.00 | 38 | 1008.8 | |
| 20260504221024 | 76 | 0.0 | 2.6 | 0.00 | 0.00 | 0.00 | 38 | 1008.8 | |
| 20260504220024 | 76 | 90 | 0.9 | 5.2 | 0.00 | 0.00 | 0.00 | 37 | 1008.8 |
| 20260504215025 | 76 | 90 | 0.9 | 5.2 | 0.00 | 0.00 | 0.00 | 37 | 1008.8 |
| 20260504214024 | 77 | 45 | 0.9 | 4.3 | 0.00 | 0.00 | 0.00 | 36 | 1008.8 |
| 20260504213024 | 77 | 90 | 1.7 | 6.1 | 0.00 | 0.00 | 0.00 | 36 | 1008.9 |
| 20260504212025 | 77 | 0.0 | 2.6 | 0.00 | 0.00 | 0.00 | 36 | 1008.8 | |
| 20260504211025 | 77 | 113 | 0.9 | 7.0 | 0.00 | 0.00 | 0.00 | 38 | 1008.9 |
| 20260504210025 | 76 | 90 | 0.9 | 4.3 | 0.00 | 0.00 | 0.00 | 35 | 1008.8 |
| 20260504205025 | 76 | 68 | 0.9 | 2.6 | 0.00 | 0.00 | 0.00 | 36 | 1008.9 |
| 20260504204024 | 77 | 90 | 0.9 | 3.5 | 0.00 | 0.00 | 0.00 | 35 | 1009.0 |
| 20260504203045 | 77 | 0.0 | 3.5 | 0.00 | 0.00 | 0.00 | 36 | 1009.1 | |
| 20260504202025 | 77 | 113 | 0.9 | 2.6 | 0.00 | 0.00 | 0.00 | 35 | 1009.2 |
| 20260504201050 | 77 | 90 | 0.9 | 5.2 | 0.00 | 0.00 | 0.00 | 35 | 1009.4 |
| 20260504200024 | 77 | 90 | 0.9 | 2.6 | 0.00 | 0.00 | 0.00 | 35 | 1009.5 |
| 20260504195025 | 78 | 0.0 | 2.6 | 0.00 | 0.00 | 0.00 | 35 | 1009.4 | |
| 20260504194025 | 79 | 113 | 0.9 | 3.5 | 0.00 | 0.00 | 0.00 | 33 | 1009.5 |
| 20260504193024 | 79 | 90 | 0.9 | 4.3 | 0.00 | 0.00 | 0.00 | 33 | 1009.5 |
| 20260504192024 | 80 | 90 | 0.9 | 5.2 | 0.00 | 0.00 | 0.00 | 31 | 1009.6 |
| 20260504191025 | 80 | 90 | 0.9 | 2.6 | 0.00 | 0.00 | 0.00 | 32 | 1009.8 |
| 20260504190024 | 79 | 90 | 0.9 | 7.8 | 0.00 | 0.00 | 0.00 | 32 | 1009.9 |
| 20260504185025 | 79 | 0.0 | 1.7 | 0.00 | 0.00 | 0.00 | 32 | 1010.1 | |
| 20260504184024 | 79 | 203 | 0.9 | 1.7 | 0.00 | 0.00 | 0.00 | 34 | 1010.3 |
| 20260504183025 | 79 | 203 | 0.9 | 7.0 | 0.00 | 0.00 | 0.00 | 32 | 1010.4 |
| 20260504182025 | 79 | 203 | 0.9 | 3.5 | 0.00 | 0.00 | 0.00 | 32 | 1010.6 |
| 20260504181024 | 79 | 203 | 0.9 | 3.5 | 0.00 | 0.00 | 0.00 | 31 | 1010.9 |
| 20260504180024 | 79 | 203 | 0.9 | 2.6 | 0.00 | 0.00 | 0.00 | 33 | 1011.0 |
| 20260504175024 | 79 | 203 | 0.9 | 3.5 | 0.00 | 0.00 | 0.00 | 33 | 1011.1 |
| 20260504174025 | 78 | 0.0 | 2.6 | 0.00 | 0.00 | 0.00 | 33 | 1011.1 | |
| 20260504173025 | 78 | 203 | 0.9 | 4.3 | 0.00 | 0.00 | 0.00 | 30 | 1011.3 |
| 20260504172024 | 78 | 0.0 | 2.6 | 0.00 | 0.00 | 0.00 | 35 | 1011.5 | |
| 20260504171044 | 77 | 0.0 | 1.7 | 0.00 | 0.00 | 0.00 | 37 | 1011.6 | |
| 20260504151024 | 73 | 0.0 | 2.6 | 0.00 | 0.00 | 0.00 | 39 | 1012.9 | |
| 20260504141044 | 67 | 0.0 | 0.9 | 0.00 | 0.00 | 0.00 | 46 | 1013.2 | |
| 20260504110525 | 0 | 0.0 | 0.0 | 0.00 | 0.00 | 0.00 | |||
| 20260504110124 | 0 | 0.0 | 0.0 | 0.00 | 0.00 | 0.00 | |||
| 20260504100525 | 0 | 0.0 | 0.0 | 0.00 | 0.00 | 0.00 | |||
| 20260504081525 | 47 | 0.0 | 0.0 | 0.00 | 0.00 | 0.00 | 73 | 1014.5 | |
| 20260504080525 | 47 | 0.0 | 0.0 | 0.00 | 0.00 | 0.00 | 72 | 1014.4 | |
| 20260504050525 | 45 | 0.0 | 0.0 | 0.00 | 0.00 | 0.00 | 78 | 1014.5 | |
| 20260504045525 | 45 | 0.0 | 0.0 | 0.00 | 0.00 | 0.00 | 78 | 1014.4 | |
| 20260504044606 | 45 | 0.0 | 0.0 | 0.00 | 0.00 | 0.00 | 78 | 1014.3 | |
| 20260504043525 | 45 | 0.0 | 0.0 | 0.00 | 0.00 | 0.00 | 79 | 1014.3 | |
| 20260504042525 | 45 | 0.0 | 0.0 | 0.00 | 0.00 | 0.00 | 79 | 1014.2 | |
| 20260504041525 | 44 | 0.0 | 0.0 | 0.00 | 0.00 | 0.00 | 79 | 1014.3 | |
| 20260504040534 | 44 | 0.0 | 0.0 | 0.00 | 0.00 | 0.00 | 79 | 1014.3 | |
| 20260504035525 | 44 | 0.0 | 0.0 | 0.00 | 0.00 | 0.00 | 80 | 1014.4 | |
| 20260504034545 | 43 | 0.0 | 0.0 | 0.00 | 0.00 | 0.00 | 79 | 1014.3 |